Showing default

CANX-5, 40056

Orbit data source: Space-Track

CANX-5, 40056 is a payload satellite owned by UTIAS-SFL (CA) in SSO that was launched on Mon, 30 Jun 2014 UTC via a PSLV launch vehicle from the Sirharikota (SRI). Payload-class satellites include a variety of spacecraft equipped with specific instruments for various scientific and technological missions. These include communications satellites like Starlink; space stations such as the ISS; scientific satellites like the Hubble; Earth observation satellites from companies like Planet Labs, Umbra, and HawkEye 360; GPS; miniature CubeSats for education and research; and military/defense satellites.

Loading next visibility...
Identifier
40056, 2014-034D
Orbit
SSO
Last TLE update
4 hours ago
Origin
Manufacturer
UTIAS-SFL
Mission
Operational Amateur Technology
Bus & Motor
GNB, Unknown motor
Mass
7 kg wet, 7 kg dry
Launch date (UTC)
2014-06-30 (11 years ago)
Launch vehicle
PSLV
Launch site
Sirharikota (SRI)
Object type
Payload
Rocket body
Debris
Shape & HBR
Box + 4 Ant, 0.2 m
Radar Cross Section
0.060 m², Medium (>0.1 m² and < 1m²)

Expand to show TLE details & history

TLE from 4 hours ago
0 CANX-5
1 40056U 14034D   25190.15946582  .00000695  00000-0  98696-4 0  9996
2 40056  98.3599  47.1239 0013815  37.5966 322.6207 14.80287304593792
Epoch: 2025-07-09T03:49Z
TLE epoch observation values (Epoch: 2025-07-09T03:49:37.846Z)
Latitude
-0.00013°
Longitude
62.37213°
Altitude
623.737 km
Speed
7.551 km/s
True Right ascension
03h 08m 29s
True Declination
0° 00' 00"
Sunlit
Object was in daylight at epoch
Visualization orbit readout
Latitude
-46.93252°
Longitude
-126.43879°
Altitude
656.108 km
Speed
7.523 km/s
Apparent Right ascension
11h 22m 03s
Apparent Declination
-54° 20' 12"
Sunlit
Object is in full shadow
Visualization observer readout
Local Sidereal Time
20:15:19
Azimuth
229.174° WSW
Elevation
-55.904°
Doppler factor
1
Orbital elements
Apogee altitude
635.155 km
Perigee altitude
615.804 km
Semi-major axis
7,003.616 km
Eccentricity
0.00138
Inclination
98.3599°
RAAN
47.1239°
Arg. of periapsis
37.5966°
True anomaly
Unknown
Mean anomaly
322.6207°
Eccentric anomaly
Unknown
Mean motion
3.70305 °/min
Orbital period
97.22 mins
BSTAR
0.000098696
Loading maneuver chart data...
Loading SW <> Apogee altitude chart data...
Loading historical data...
Loading historical data...
Loading historical data...
Loading historical data...
Loading historical data...
Loading historical data...
Loading historical data...
Other satellites on launch #34 in the year 2014 (2014-06-30 UTC)

CANX-5 Visibility forecast

Observer location: undefined°, undefined°

Span
Click to sort rows by Start time (UTC) header in descending order
Start Az.
Max El. time (UTC)
Max El. Az.
Max El.
End time (UTC)
End Az.
7 mins2025-07-09 13:41:43.144Z125.867° SE2025-07-09 13:45:43.144Z56.901° ENE24.243°2025-07-09 13:48:43.144Z11.949° NNE
5 mins2025-07-09 15:19:43.144Z229.931° WSW2025-07-09 15:21:43.144Z270.927° WNW22.272°2025-07-09 15:24:43.144Z317.454° NNW
6 mins2025-07-10 03:07:43.144Z30.574° NE2025-07-10 03:09:43.144Z73.746° E38.64°2025-07-10 03:13:43.144Z177.422° S
|